Regional Weather Roundup
Issued by NWS Wilmington, NC

Home | Current Version | Previous Version | Text Only | Print | Product List | Glossary On
Versions: 1 2 3 4 5 6 7 8 9 10 11 12 13 14 15 16 17 18 19 20 21 22 23 24 25 26 27
000
ASUS42 KILM 301913
RWRILM
RWRILM
REGIONAL HOURLY WEATHER ROUNDUP
NATIONAL WEATHER SERVICE WILMINGTON NC
300 PM EDT SAT JUL 30 2016

NOTE: "FAIR" INDICATES FEW OR NO CLOUDS BELOW 12,000 FEET WITH NO
SIGNIFICANT WEATHER AND/OR OBSTRUCTIONS TO VISIBILITY.

...............WFO WILMINGTON COUNTY WARNING AREA...............

......COASTAL NC AND SC COUNTIES......

CITY           SKY/WX    TMP DP  RH WIND       PRES   REMARKS
WILMINGTON     MOSUNNY   90  75  61 S9        29.96F HX 100
N MYRTLE BEACH MOSUNNY   93  79  63 S13       29.96F HX 110
MYRTLE BEACH   PTSUNNY   93  72  49 S12       29.98F HX 100

......INLAND NC AND SC COUNTIES.......

CITY           SKY/WX    TMP DP  RH WIND       PRES   REMARKS
LUMBERTON      SUNNY     96  71  44 SW15      29.93F HX 103
ELIZABETHTOWN  MOSUNNY   98  67  36 W14       29.95F HX 102
WHITEVILLE     MOSUNNY   97  71  43 W7        29.95F HX 104
FLORENCE       MOSUNNY   96  72  45 SW15G21   29.96F HX 104
DARLINGTON     NOT AVBL
KINGSTREE      FAIR      95  70  43 W6        29.96F HX 101
HARTSVILLE     FAIR      93  70  46 SW6       29.95F HX  99
BENNETTSVILLE  FAIR      97  70  41 SW7       29.94F HX 103
CONWAY         FAIR      91  72  52 CALM      29.96F HAZE    HX  98
GEORGETOWN     FAIR      93  72  49 SW20      29.99S HX 100
MARION           N/A     97  70  41 SW13G21   29.96F HX 103

....................REST OF NORTH CAROLINA......................

.........EASTERN NC.........

CITY           SKY/WX    TMP DP  RH WIND       PRES   REMARKS
CAPE HATTERAS  CLOUDY    86  78  77 S8        29.98F HX  98
JACKSONVILLE   CLOUDY    83  73  72 E7        29.95S
MOREHEAD CITY  CLOUDY    88  83  85 SW15      29.97S HX 109
KENANSVILLE    NOT AVBL
NEW BERN       CLOUDY    80  71  74 S17G29    29.98R THUNDER
ELIZABETH CITY TSTM      79  72  79 S8G22     30.00R

.........CENTRAL NC.........

CITY           SKY/WX    TMP DP  RH WIND       PRES   REMARKS
RALEIGH DURHAM PTSUNNY   93  73  52 W12G18    29.93F HX 102
ROCKY MOUNT    CLOUDY    94  74  52 SW13G21   29.91F HX 104
ROANOKE RAPIDS NOT AVBL
FAYETTEVILLE   MOSUNNY  100  66  32 W20G28    29.92F HX 104
HOFFMAN        SUNNY     95  70  44 NW6G14    29.94F HX 101

.........WESTERN NC.........

CITY           SKY/WX    TMP DP  RH WIND       PRES   REMARKS
CHARLOTTE      MOSUNNY   91  67  44 SW7       29.98F HX  94
GREENSBORO     MOSUNNY   92  67  43 VRB3      29.96F HX  95
HICKORY        NOT AVBL
BOONE          NOT AVBL
ASHEVILLE      NOT AVBL

.....................REST OF SOUTH CAROLINA.....................

.........EASTERN SC.........

CITY           SKY/WX    TMP DP  RH WIND       PRES   REMARKS
CHARLESTON     MOSUNNY   98  68  37 SW13G21   29.97F HX 103
BEAUFORT MCAS  MOSUNNY  101  69  35 SW6G20    29.98F HX 107
HILTON HEAD    MOSUNNY   99  77  49 S12       30.01S HX 114

.........CENTRAL SC.........

CITY           SKY/WX    TMP DP  RH WIND       PRES   REMARKS
COLUMBIA       PTSUNNY   99  64  31 SW15      29.94F HX 101
ORANGEBURG     MOSUNNY   98  70  40 S8        29.97F HX 105
SUMTER SHAW    SUNNY     97  69  40 SW14      29.93F HAZE    HX 102

.........WESTERN SC.........

CITY           SKY/WX    TMP DP  RH WIND       PRES   REMARKS
GREENVILLE     NOT AVBL
ROCK HILL      CLOUDY    91  66  43 W10       29.98F HX  93
ANDERSON       MOSUNNY   95  66  38 SW12      29.97F HX  98
CLEMSON        NOT AVBL
GREENWOOD      CLOUDY    86  73  65 SW8       30.00F HX  93


...................COASTAL AND OFFSHORE REPORTS..................

................LOCAL PIERS AND NC RESERVE................


STATION/POSITION TIME  SKY/WX   TEMP    WIND        PRES    VSBY
                                AIR SEA DIR/SP/G
                 (UTC)          (F)     (DEG/KT/KT) (MB)    (MI)
JOHNY MRCER PIER 1800            85 83  190/ 20/ 24 1013.7F
NC RESRV MASNBRO NOT AVBL
OCEAN CREST PIER NOT AVBL
SPRINGMAID  PIER 1800            88 82              1015.0F


................COASTAL AND OFFSHORE BUOYS................


STATION/POSITION TIME  SKY/WX   TEMP    WIND        PRES    VSBY
                                AIR SEA DIR/SP/G
                 (UTC)          (F)     (DEG/KT/KT) (MB)    (MI)
DIMNDSHOAL 41025 1850            85 85  180/ 12/ 14 1015.4F
WVE H/P(F/S)=  2/ 6 SWL H/P/D(F/S/D)=  2/210/ 6

CAPE LOOKOUT     1800            86     200/ 12/ 14 1014.9F
ONSLOW BAY 41036 NOT AVBL
ONSLOW BAY 41064 1808            86 85  210/ 14/ 17 1015.0F
ONSLOW BAY 41159 1825               85                N/A
WVE H/P(F/S)=  3/ 6

5SE WRITBC 41038 NOT AVBL
MASNBO INL 41110 1806               81                N/A
WVE H/P(F/S)=  3/ 4

WILM HARBR 41108 1826               85                N/A
WVE H/P(F/S)=  3/ 5

27SE WRITB 41037 1808            85 85  210/ 12/ 16 1015.4F
FRYING PAN 41013 1900                   210/ 10/ 12 1015.0F
SUNST NRSH 41024 1808            85 86  200/ 14/ 17 1014.6F
CAPRS NRSH 41029 1808            87 87  200/ 10/ 14 1015.6F
EDISTO     41004 1850            85 86  220/ 10/ 12 1015.7F
WVE H/P(F/S)=  3/ 6 SWL H/P/D(F/S/D)=  2/230/ 6



..........OFFSHORE BUOYS BEYOND 100 NM OFFSHORE...........
.....IN A TRIANGLE---HAT TO BERMUDA TO BAHAMAS TO HAT.....


STATION/POSITION TIME  SKY/WX   TEMP    WIND        PRES    VSBY
                                AIR SEA DIR/SP/G
                 (UTC)          (F)     (DEG/KT/KT) (MB)    (MI)
150E HAT   41001 NOT AVBL
W BERMUDA  41048 1850            85 85  210/ 12/ 14 1019.6F
WVE H/P(F/S)=  3/ 7 SWL H/P/D(F/S/D)=  2/130/ 7

ATLANTIC S 41049 1850            84 85  130/ 10/ 12 1022.7F
WVE H/P(F/S)=  4/ 7 SWL H/P/D(F/S/D)=  3/120/ 7

E BAHAMAS  41046 1900            84     110/ 14/ 17 1018.9F
NE BAHAMAS 41047 1900            85 85  160/ 12/ 16 1019.5F
120E CANVRL41010 1820            86 89  310/  2/  4 1018.3F

END




USA.gov is the U.S. government's official web portal to all federal, state and local government web resources and services.